MST,Max TemperatureF,Mean TemperatureF,Min TemperatureF,Max Dew PointF,MeanDew PointF,Min DewpointF,Max Humidity, Mean Humidity, Min Humidity, Max Sea Level PressureIn, Mean Sea Level PressureIn, Min Sea Level PressureIn, Max VisibilityMiles, Mean VisibilityMiles, Min VisibilityMiles, Max Wind SpeedMPH, Mean Wind SpeedMPH, Max Gust SpeedMPH,PrecipitationIn, CloudCover, Events, WindDirDegrees
2013-2-1,-18,-26,-35,-24,-31,-40,91,75,56,30.23,30.21,30.19,12,7,1,18,13,28,0.00,6,Fog-Snow,246
2013-2-2,-11,-20,-29,-15,-20,-26,100,80,64,30.29,30.26,30.21,8,3,1,22,14,31,0.01,6,Fog-Snow,277
2013-2-3,-12,-22,-31,-18,-26,-36,91,74,58,30.19,30.09,29.98,15,8,2,18,13,25,0.00,5,Snow,254
2013-2-4,-25,-30,-34,-31,-34,-36,91,81,57,30.18,30.07,29.98,15,10,1,16,9,18,0.00,2,Fog-Snow,232
2013-2-5,-27,-30,-34,-31,-36,-40,91,80,53,30.20,30.14,30.05,15,12,12,15,8,,0.00,1,Snow,225
2013-2-6,-10,-22,-35,-17,-28,-36,91,79,62,30.05,29.97,29.90,15,11,4,13,3,,0.00,5,Snow,267
2013-2-7,-28,-32,-36,-31,-37,-40,91,74,57,30.17,30.13,30.06,15,12,12,18,10,,0.00,1,Snow,239
2013-2-8,-26,-32,-39,-32,-37,-44,75,70,54,30.09,29.99,29.94,15,14,12,9,1,,0.00,2,Snow,264
2013-2-9,-19,-26,-34,-27,-30,-36,76,68,34,30.15,30.05,29.95,15,14,6,15,6,,0.00,4,Snow,246
2013-2-10,-5,-18,-30,-8,-17,-24,92,76,57,30.11,29.73,29.47,12,5,0,20,7,25,0.02,8,Snow,67
2013-2-11,-9,-12,-16,-15,-18,-20,92,80,69,29.77,29.66,29.51,12,5,1,18,11,22,0.04,7,Snow,33
2013-2-12,-12,-20,-27,-18,-25,-35,91,77,60,30.00,29.90,29.78,12,8,3,8,3,,0.01,6,Snow,35
2013-2-13,-24,-30,-35,-27,-32,-40,91,78,56,30.26,30.14,30.01,12,10,7,7,0,,0.00,5,Snow,215
2013-2-14,-23,-34,-43,-29,-33,-40,91,78,62,30.27,30.21,30.12,15,11,5,5,1,,0.00,4,Fog-Snow,317
2013-2-15,-24,-32,-40,-27,-30,-36,91,79,60,30.19,30.12,30.06,12,6,2,12,8,,0.01,8,Snow,23
2013-2-16,-21,-24,-28,-24,-29,-33,91,76,57,30.36,30.29,30.19,15,8,4,10,7,,0.01,7,Snow,56
2013-2-17,-26,-31,-36,-31,-37,-41,91,73,52,30.45,30.41,30.37,15,14,8,6,2,,0.00,3,Snow,8
2013-2-18,-27,-34,-40,-33,-37,-42,100,70,56,30.51,30.49,30.46,15,13,4,8,2,,0.00,4,Fog-Snow,280
2013-2-19,-19,-24,-28,-25,-29,-33,76,74,58,30.48,30.37,30.25,15,11,6,8,3,,0.00,7,Snow,51
2013-2-20,-18,-24,-31,-24,-28,-38,76,72,48,30.24,30.13,30.07,12,9,5,10,6,,0.03,6,Snow,28
2013-2-21,-23,-30,-38,-29,-35,-40,76,70,53,30.12,30.10,30.08,12,9,3,13,9,,0.00,4,Snow,310
2013-2-22,-14,-24,-35,-20,-24,-29,84,75,63,30.07,30.00,29.97,8,6,2,14,11,,0.02,8,Snow,45
2013-2-23,-10,-15,-20,-15,-19,-21,84,74,55,30.08,30.05,30.01,8,6,3,8,6,,0.02,8,Snow,73
2013-2-24,-2,-10,-19,-9,-16,-24,78,72,55,30.03,29.97,29.95,15,9,3,22,7,30,0.00,6,Fog-Snow,84
2013-2-25,-9,-14,-20,-18,-23,-26,91,74,51,30.35,30.20,30.01,15,6,1,23,14,30,0.00,5,Snow,62
2013-2-26,-18,-24,-31,-24,-31,-36,83,71,45,30.53,30.46,30.36,15,13,6,9,3,,0.00,2,Snow,239
2013-2-27,-11,-22,-34,-18,-30,-38,91,72,55,30.56,30.47,30.32,15,14,12,14,2,,0.00,1,Snow,122
2013-2-28,9,-11,-31,5,-10,-29,85,75,58,30.30,30.05,29.83,15,13,12,18,5,18,0.00,4,Snow,179